Airfield :
LOGIN :

Register | Disclaimer

   EN    FR    IT 

 










Legend :    VFR   Marginal VFR   IFR   Intensive IFR   Very Intensive IFR
Visi :
Ceiling :
>= 8 km
>= 3000ft
5 to 8 km
1000 to 3000 ft
1500m to 5 km
500 to 1000 ft
800 to 1500m
200 to 500 ft
< 800m
< 200 ft
Symbols :   Thunderstorms  Fog  Heavy snow  Heavy precipitations  Wind > 20 kt
SIGMETs :     Misc.  Thunderstorms  Icing  Turbulence  Mountain Waves  Volcanic Ashes







- Airport Elevation : 26 ft
- IATA code : BIA
- Download approach charts


LFKB - Bastia

CURRENT METAR :
  • 220400Z 24006KT 9999 FEW033 14/10 Q1020 NOSIG

EXPIRED METARs :
  • 220330Z 24006KT 9999 FEW033 15/10 Q1020 NOSIG
  • 220300Z 23006KT 9999 FEW033 15/11 Q1020 NOSIG
  • 220230Z 24007KT 9999 FEW033 15/11 Q1020 NOSIG
  • 220130Z 24003KT 9999 FEW033 14/11 Q1020 NOSIG

TAF TAF LFKB
Valid from the 22 at 03:00 until the 23 at 03:00 UTC


220200Z 2203/2303 24005KT 9999 FEW030
TEMPO 2210/2212 12010KT TX24/2212Z TN14/2204Z
ATIS : +33 4 95 59 19 40
No reported NOTAMs for that airfield.



MET'MAP, your aeronautical weather chart ! - Copyright ORBIFLY December 2007 - Disclaimer

ORBIFLY MET'MAP TEAM :

Programming & Development : Alexandra Zaïnal
Concept & Development : Baudouin d'Aumeries
Co-Development & Prog : Marc-Olivier Méhu
Technical & hardware support : Manuel Goepfert

Contact : metmap@orbifly.com




SOURCES & CREDITS :

   NOAA